{"data":{"norad_id":68274,"intl_designator":"2026-055N","name":"STARLINK-37129","alt_names":[],"object_type":"PAYLOAD","status":"ACTIVE","operator":null,"country":"US","launch_date":"2026-03-19","launch_site_code":"AFETR","launch_vehicle":null,"mission":null,"orbit_class":"UNKNOWN","rcs_meters":null,"size_class":null,"mass_kg":null,"dimensions":null,"purposes":["comms"],"wikipedia_slug":null,"has_3d_model":false,"image_url":null,"decayed_at":null,"tle_current":{"epoch":"2026-09-19T22:39:22.590144Z","epoch_age_seconds":99628,"freshness":"FRESH","line1":"1 68274U 26055N   26262.94401146  .00010810  00000+0  33054-3 0  9999","line2":"2 68274  53.1570 132.6128 0001120  63.7213 296.3905 15.34406620 29735","mean_motion":15.3440662,"eccentricity":0.000112,"inclination_deg":53.157,"raan_deg":132.6128,"arg_perigee_deg":63.7213,"mean_anomaly_deg":296.3905,"bstar":0.00033054,"rev_number":2973,"period_min":93.847353187254,"perigee_km":461.91739233955,"apogee_km":463.44973614594,"semimajor_km":6840.8205642427,"source":"CELESTRAK","updated_at":"2026-09-20T09:00:43.848369Z"}}}